Atwater, CA

12:13 PM PDT on June 28, 2017 (GMT -0700)
Castle

Weather History for KMER - December, 2012

Change the Weather History Date:

Saturday, December 15, 2012

  Actual Average (KMCE) Record (KMCE)
Temperature  
Mean Temperature 41 °F -  
Max Temperature 50 °F 53 °F 63 °F (2000)
Min Temperature 32 °F 35 °F 27 °F (2013)
Degree Days  
Heating Degree Days 24    
Moisture  
Dew Point 40 °F    
Average Humidity 99    
Maximum Humidity 100    
Minimum Humidity 87    
Precipitation  
Precipitation 0.00 in - - ()
Sea Level Pressure  
Sea Level Pressure 30.07 in    
Wind  
Wind Speed 3 mph (SE)    
Max Wind Speed 7 mph    
Max Gust Speed -    
Visibility 8 miles    
Events Fog    
Averages and records for this station are not official NWS values.
T = Trace of Precipitation, MM = Missing Value Source: NWS Daily Summary

Daily Weather History Graph

Daily Weather History Graph

Search for Another Location

Airport or City:

Trip Planner

Search our weather history database for the weather conditions in past years. The results will help you decide how hot, cold, wet, or windy it might be!

Date:

Astronomy

Dec. 15, 2012 Rise Set
Actual Time 7:09 AM PST 4:45 PM PST
Civil Twilight 6:40 AM PST 5:14 PM PST
Nautical Twilight 6:07 AM PST 5:47 PM PST
Astronomical Twilight 5:36 AM PST 6:19 PM PST
Moon 9:08 AM PST (12/15) 7:53 PM PST (12/15)
Length of Visible Light 10h 34m
Length of Day
9h 36m
Waxing Crescent, 9% of the Moon is Illuminated
Dec 15
Waxing Crescent
Dec 19
First Quarter
Dec 28
Full
Jan 4
Last Quarter
Jan 11
New

Hourly Weather History & Observations

Time (PST) Temp. Windchill Dew Point Humidity Pressure Visibility Wind Dir Wind Speed Gust Speed Precip Events Conditions
12:15 AM 37.4 °F 33.8 °F 37.4 °F 100% 30.03 in 10.0 mi North 4.6 mph - N/A   Clear
12:35 AM 37.4 °F 34.9 °F 37.4 °F 100% 30.02 in 10.0 mi ENE 3.5 mph - N/A   Clear
12:55 AM 37.4 °F - 37.4 °F 100% 30.03 in 10.0 mi Calm Calm - N/A   Clear
1:15 AM 39.2 °F - 39.2 °F 100% 30.04 in 10.0 mi Calm Calm - N/A   Clear
1:35 AM 37.4 °F 33.8 °F 37.4 °F 100% 30.06 in 10.0 mi NW 4.6 mph - N/A   Clear
1:55 AM 37.4 °F 34.9 °F 37.4 °F 100% 30.05 in 10.0 mi NNW 3.5 mph - N/A   Clear
2:15 AM 35.6 °F 32.8 °F 35.6 °F 100% 30.05 in 10.0 mi NNW 3.5 mph - N/A   Clear
2:35 AM 35.6 °F 32.8 °F 35.6 °F 100% 30.06 in 10.0 mi NW 3.5 mph - N/A   Clear
2:55 AM 35.6 °F - 35.6 °F 100% 30.06 in 10.0 mi Calm Calm - N/A   Clear
3:15 AM 35.6 °F - 35.6 °F 100% 30.06 in 10.0 mi Calm Calm - N/A   Clear
3:35 AM 35.6 °F - 35.6 °F 100% 30.06 in 10.0 mi Calm Calm - N/A   Clear
3:55 AM 35.6 °F - 35.6 °F 100% 30.04 in 10.0 mi Calm Calm - N/A   Clear
4:15 AM 35.6 °F - 35.6 °F 100% 30.04 in 10.0 mi Calm Calm - N/A   Clear
4:35 AM 35.6 °F 31.7 °F 35.6 °F 100% 30.04 in 9.0 mi West 4.6 mph - N/A   Clear
4:55 AM 33.8 °F - 33.8 °F 100% 30.03 in 8.0 mi Calm Calm - N/A   Clear
5:15 AM 33.8 °F - 33.8 °F 100% 30.04 in 5.0 mi Calm Calm - N/A   Clear
5:35 AM 32.0 °F - 32.0 °F 100% 30.04 in 5.0 mi Calm Calm - N/A   Clear
5:55 AM 32.0 °F - 32.0 °F 100% 30.05 in 3.0 mi North - - N/A   Clear
6:45 AM 32.0 °F - 32.0 °F 100% 30.07 in 0.2 mi Calm Calm - N/A Fog Fog
8:45 AM 37.4 °F - 37.4 °F 100% 30.10 in 0.5 mi Calm Calm - N/A Fog Fog
9:45 AM 41.0 °F - 41.0 °F 100% 30.12 in 1.0 mi Calm Calm - N/A Fog Fog
10:45 AM 46.4 °F - 46.4 °F 100% 30.13 in 3.0 mi Calm Calm - N/A   Overcast
11:45 AM 48.2 °F - 48.2 °F 100% 30.11 in 5.0 mi Variable 3.5 mph - N/A   Haze
12:45 PM 50.0 °F - 46.4 °F 87% 30.08 in 7.0 mi Variable 4.6 mph - N/A   Haze
2:45 PM 48.2 °F - 46.4 °F 93% 30.07 in 10.0 mi Variable 4.6 mph - N/A   Overcast
3:47 PM 48.2 °F - 48.2 °F 100% 30.07 in 10.0 mi Variable 3.5 mph - N/A   Overcast
4:45 PM 46.4 °F 45.2 °F 46.4 °F 100% 30.08 in 10.0 mi Variable 3.5 mph - N/A   Scattered Clouds
6:45 PM 46.4 °F 44.3 °F 46.4 °F 100% 30.07 in 10.0 mi Variable 4.6 mph - N/A   Partly Cloudy
7:45 PM 44.6 °F 43.1 °F 44.6 °F 100% 30.08 in 10.0 mi Variable 3.5 mph - N/A   Clear
8:15 PM 44.6 °F 40.7 °F 44.6 °F 100% 30.07 in 10.0 mi South 6.9 mph - N/A   Partly Cloudy
8:35 PM 44.6 °F 40.7 °F 44.6 °F 100% 30.06 in 10.0 mi South 6.9 mph - N/A   Clear
8:45 PM 42.8 °F 39.3 °F 42.8 °F 100% 30.07 in 10.0 mi SSE 5.8 mph - N/A   Scattered Clouds
8:55 PM 42.8 °F 38.6 °F 42.8 °F 100% 30.07 in 10.0 mi South 6.9 mph - N/A   Mostly Cloudy
9:15 PM 42.8 °F 40.1 °F 42.8 °F 100% 30.08 in 10.0 mi South 4.6 mph - N/A   Mostly Cloudy
9:35 PM 42.8 °F 39.3 °F 42.8 °F 100% 30.07 in 9.0 mi SSE 5.8 mph - N/A   Mostly Cloudy
9:55 PM 42.8 °F 39.3 °F 42.8 °F 100% 30.07 in 10.0 mi SSE 5.8 mph - N/A   Scattered Clouds
10:15 PM 41.0 °F 39.0 °F 41.0 °F 100% 30.07 in 9.0 mi SSE 3.5 mph - N/A   Mostly Cloudy
10:35 PM 42.8 °F 41.1 °F 42.8 °F 100% 30.08 in 10.0 mi SE 3.5 mph - N/A   Overcast
10:50 PM 41.0 °F 39.0 °F 39.2 °F 93% 30.08 in 10.0 mi East 3.5 mph - N/A   Overcast
10:55 PM 42.8 °F 41.1 °F 42.8 °F 100% 30.09 in 10.0 mi ESE 3.5 mph - N/A   Overcast
11:15 PM 42.8 °F 40.1 °F 42.8 °F 100% 30.09 in 10.0 mi ESE 4.6 mph - N/A   Overcast
11:55 PM 42.8 °F 41.1 °F 42.8 °F 100% 30.09 in 7.0 mi ESE 3.5 mph - N/A   Overcast